Time,TemperatureF,DewpointF,PressureIn,WindDirection,WindDirectionDegrees,WindSpeedMPH,WindSpeedGustMPH,Humidity,HourlyPrecipIn,Conditions,Clouds,dailyrainin,SoftwareType,DateUTC
2014-01-12 00:03:00,43.9,36.9,30.12,NW,305,0.0,0.0,76,0.00,,,0.32,meteohub,2014-01-12 06:03:00,
2014-01-12 00:05:00,43.7,36.3,30.12,NW,305,0.0,0.0,75,0.00,,,0.32,meteohub,2014-01-12 06:05:00,
2014-01-12 00:10:00,43.7,36.3,30.12,NW,305,0.0,0.0,75,0.00,,,0.00,meteohub,2014-01-12 06:10:00,
2014-01-12 00:15:00,43.5,36.1,30.12,NW,305,0.0,0.0,75,0.00,,,0.00,meteohub,2014-01-12 06:15:00,
2014-01-12 00:20:00,43.5,35.4,30.12,NW,305,0.0,0.0,73,0.00,,,0.00,meteohub,2014-01-12 06:20:00,
2014-01-12 00:25:00,43.5,35.4,30.12,NW,305,0.0,0.0,73,0.00,,,0.00,meteohub,2014-01-12 06:25:00,
2014-01-12 00:30:00,43.9,36.9,30.12,NW,305,0.0,0.0,76,0.00,,,0.00,meteohub,2014-01-12 06:30:00,
2014-01-12 00:35:00,43.7,36.7,30.12,NW,305,0.0,1.0,76,0.00,,,0.00,meteohub,2014-01-12 06:35:00,
2014-01-12 00:40:00,43.5,36.9,30.12,NW,305,0.0,1.0,77,0.00,,,0.00,meteohub,2014-01-12 06:40:00,
2014-01-12 00:45:00,43.5,37.0,30.12,NW,305,0.0,1.0,78,0.00,,,0.00,meteohub,2014-01-12 06:45:00,
2014-01-12 00:50:00,43.3,36.9,30.12,NW,305,0.0,0.0,78,0.00,,,0.00,meteohub,2014-01-12 06:50:00,
2014-01-12 00:55:00,43.2,37.0,30.12,NW,305,0.0,0.0,79,0.00,,,0.00,meteohub,2014-01-12 06:55:00,
2014-01-12 01:00:00,43.0,37.2,30.12,NW,305,0.0,0.0,80,0.00,,,0.00,meteohub,2014-01-12 07:00:00,
2014-01-12 01:05:00,43.0,37.6,30.12,NW,305,0.0,0.0,81,0.00,,,0.00,meteohub,2014-01-12 07:05:00,
2014-01-12 01:10:00,42.8,37.4,30.12,NW,305,0.0,0.0,81,0.00,,,0.00,meteohub,2014-01-12 07:10:00,
2014-01-12 01:15:00,42.6,37.6,30.12,NW,305,0.0,0.0,82,0.00,,,0.00,meteohub,2014-01-12 07:15:00,
2014-01-12 01:20:00,42.6,37.6,30.12,NW,305,0.0,0.0,82,0.00,,,0.00,meteohub,2014-01-12 07:20:00,
2014-01-12 01:25:00,42.4,37.6,30.12,NW,305,0.0,0.0,83,0.00,,,0.00,meteohub,2014-01-12 07:25:00,
2014-01-12 01:30:00,42.4,37.6,30.12,NW,305,0.0,0.0,83,0.00,,,0.00,meteohub,2014-01-12 07:30:00,
2014-01-12 01:35:00,42.3,37.4,30.13,NW,305,0.0,0.0,83,0.00,,,0.00,meteohub,2014-01-12 07:35:00,
2014-01-12 01:40:00,42.1,37.2,30.13,NW,305,0.0,0.0,83,0.00,,,0.00,meteohub,2014-01-12 07:40:00,
2014-01-12 01:45:00,42.1,37.2,30.13,NW,305,0.0,0.0,83,0.00,,,0.00,meteohub,2014-01-12 07:45:00,
2014-01-12 01:50:00,41.7,36.9,30.13,NW,305,0.0,0.0,83,0.00,,,0.00,meteohub,2014-01-12 07:50:00,
2014-01-12 01:55:00,41.7,37.2,30.13,NW,305,0.0,0.0,84,0.00,,,0.00,meteohub,2014-01-12 07:55:00,
2014-01-12 02:00:00,41.5,37.0,30.13,NW,305,0.0,0.0,84,0.00,,,0.00,meteohub,2014-01-12 08:00:00,
2014-01-12 02:05:00,41.4,36.9,30.13,NW,305,0.0,0.0,84,0.00,,,0.00,meteohub,2014-01-12 08:05:00,
2014-01-12 02:10:00,41.4,36.9,30.13,NW,305,0.0,0.0,84,0.00,,,0.00,meteohub,2014-01-12 08:10:00,
2014-01-12 02:15:00,41.2,36.7,30.13,NW,305,0.0,0.0,84,0.00,,,0.00,meteohub,2014-01-12 08:15:00,
2014-01-12 02:20:00,41.2,36.7,30.13,NW,305,0.0,0.0,84,0.00,,,0.00,meteohub,2014-01-12 08:20:00,
2014-01-12 02:25:00,41.0,36.3,30.13,NW,305,0.0,0.0,83,0.00,,,0.00,meteohub,2014-01-12 08:25:00,
2014-01-12 02:30:00,40.8,36.1,30.13,NW,305,0.0,0.0,83,0.00,,,0.00,meteohub,2014-01-12 08:30:00,
2014-01-12 02:35:00,40.6,36.0,30.13,NW,305,0.0,0.0,83,0.00,,,0.00,meteohub,2014-01-12 08:35:00,
2014-01-12 02:41:00,40.6,36.0,30.13,NW,305,0.0,0.0,83,0.00,,,0.00,meteohub,2014-01-12 08:41:00,
2014-01-12 02:46:00,40.6,36.0,30.12,NW,305,0.0,0.0,83,0.00,,,0.00,meteohub,2014-01-12 08:46:00,
2014-01-12 02:51:00,40.6,36.0,30.12,NW,305,1.0,2.0,83,0.00,,,0.00,meteohub,2014-01-12 08:51:00,
2014-01-12 02:56:00,40.5,36.0,30.12,NW,305,0.0,2.0,84,0.00,,,0.00,meteohub,2014-01-12 08:56:00,
2014-01-12 03:01:00,40.5,35.8,30.12,NW,305,0.0,2.0,83,0.00,,,0.00,meteohub,2014-01-12 09:01:00,
2014-01-12 03:06:00,40.5,35.8,30.12,NW,305,0.0,2.0,83,0.00,,,0.00,meteohub,2014-01-12 09:06:00,
2014-01-12 03:11:00,40.3,35.2,30.13,NW,305,0.0,1.0,82,0.00,,,0.00,meteohub,2014-01-12 09:11:00,
2014-01-12 03:16:00,40.3,35.2,30.13,NW,305,0.0,1.0,82,0.00,,,0.00,meteohub,2014-01-12 09:16:00,
2014-01-12 03:21:00,40.5,36.0,30.13,NW,305,0.0,1.0,84,0.00,,,0.00,meteohub,2014-01-12 09:21:00,
2014-01-12 03:26:00,40.5,35.8,30.13,NW,305,0.0,0.0,83,0.00,,,0.00,meteohub,2014-01-12 09:26:00,
2014-01-12 03:31:00,40.3,35.6,30.13,NW,305,0.0,1.0,83,0.00,,,0.00,meteohub,2014-01-12 09:31:00,
2014-01-12 03:36:00,40.3,35.6,30.13,NW,305,0.0,1.0,83,0.00,,,0.00,meteohub,2014-01-12 09:36:00,
2014-01-12 03:41:00,40.3,35.8,30.13,NW,305,0.0,1.0,84,0.00,,,0.00,meteohub,2014-01-12 09:41:00,
2014-01-12 03:46:00,40.5,36.0,30.13,NW,305,0.0,0.0,84,0.00,,,0.00,meteohub,2014-01-12 09:46:00,
2014-01-12 03:51:00,40.5,36.3,30.13,NW,305,0.0,2.0,85,0.00,,,0.00,meteohub,2014-01-12 09:51:00,
2014-01-12 03:56:00,40.5,36.3,30.13,NW,305,0.0,2.0,85,0.00,,,0.00,meteohub,2014-01-12 09:56:00,
2014-01-12 04:01:00,40.5,36.3,30.13,NW,305,0.0,2.0,85,0.00,,,0.00,meteohub,2014-01-12 10:01:00,
2014-01-12 04:06:00,40.3,36.1,30.13,NW,305,1.0,1.0,85,0.00,,,0.00,meteohub,2014-01-12 10:06:00,
2014-01-12 04:11:00,39.9,36.1,30.14,NW,305,0.0,2.0,86,0.00,,,0.00,meteohub,2014-01-12 10:11:00,
2014-01-12 04:16:00,39.9,36.3,30.14,NW,305,0.0,2.0,87,0.00,,,0.00,meteohub,2014-01-12 10:16:00,
2014-01-12 04:21:00,39.9,36.3,30.13,NW,305,0.0,2.0,87,0.00,,,0.00,meteohub,2014-01-12 10:21:00,
2014-01-12 04:26:00,39.9,36.3,30.13,NW,305,0.0,1.0,87,0.00,,,0.00,meteohub,2014-01-12 10:26:00,
2014-01-12 04:31:00,39.9,36.3,30.13,NW,305,0.0,1.0,87,0.00,,,0.00,meteohub,2014-01-12 10:31:00,
2014-01-12 04:37:00,39.7,36.5,30.13,NW,305,0.0,0.0,88,0.00,,,0.00,meteohub,2014-01-12 10:37:00,
2014-01-12 04:42:00,39.9,36.7,30.13,NW,305,0.0,0.0,88,0.00,,,0.00,meteohub,2014-01-12 10:42:00,
2014-01-12 04:47:00,39.9,36.7,30.13,NW,305,0.0,0.0,88,0.00,,,0.00,meteohub,2014-01-12 10:47:00,
2014-01-12 04:52:00,39.7,36.5,30.13,NW,305,0.0,1.0,88,0.00,,,0.00,meteohub,2014-01-12 10:52:00,
2014-01-12 04:57:00,39.7,36.5,30.13,NW,305,0.0,1.0,88,0.00,,,0.00,meteohub,2014-01-12 10:57:00,
2014-01-12 05:01:00,39.6,36.3,30.13,NW,305,0.0,1.0,88,0.00,,,0.00,meteohub,2014-01-12 11:01:00,
2014-01-12 05:07:00,39.6,36.5,30.13,NW,305,0.0,1.0,89,0.00,,,0.00,meteohub,2014-01-12 11:07:00,
2014-01-12 05:12:00,39.4,36.5,30.13,NW,305,0.0,1.0,89,0.00,,,0.00,meteohub,2014-01-12 11:12:00,
2014-01-12 05:17:00,39.4,36.5,30.13,NW,305,0.0,1.0,89,0.00,,,0.00,meteohub,2014-01-12 11:17:00,
2014-01-12 05:22:00,39.4,36.5,30.13,NW,305,0.0,1.0,89,0.00,,,0.00,meteohub,2014-01-12 11:22:00,
2014-01-12 05:27:00,39.2,36.3,30.13,NW,305,0.0,0.0,89,0.00,,,0.00,meteohub,2014-01-12 11:27:00,
2014-01-12 05:32:00,39.2,36.3,30.13,NW,305,0.0,0.0,89,0.00,,,0.00,meteohub,2014-01-12 11:32:00,
2014-01-12 05:37:00,39.0,36.1,30.14,NW,305,0.0,1.0,89,0.00,,,0.00,meteohub,2014-01-12 11:37:00,
2014-01-12 05:42:00,39.0,36.1,30.14,NW,305,0.0,1.0,89,0.00,,,0.00,meteohub,2014-01-12 11:42:00,
2014-01-12 05:47:00,39.0,36.1,30.14,NW,305,0.0,1.0,89,0.00,,,0.00,meteohub,2014-01-12 11:47:00,
2014-01-12 05:52:00,39.0,36.1,30.14,NW,305,0.0,0.0,89,0.00,,,0.00,meteohub,2014-01-12 11:52:00,
2014-01-12 05:56:00,38.8,36.0,30.14,NW,305,0.0,0.0,89,0.00,,,0.00,meteohub,2014-01-12 11:56:00,
2014-01-12 06:02:00,39.0,36.3,30.14,NW,305,0.0,0.0,90,0.00,,,0.00,meteohub,2014-01-12 12:02:00,
2014-01-12 06:07:00,39.0,36.3,30.14,NW,305,0.0,0.0,90,0.00,,,0.00,meteohub,2014-01-12 12:07:00,
2014-01-12 06:12:00,39.0,36.3,30.14,NW,305,0.0,0.0,90,0.00,,,0.00,meteohub,2014-01-12 12:12:00,
2014-01-12 06:17:00,39.0,36.3,30.15,NW,305,0.0,0.0,90,0.00,,,0.00,meteohub,2014-01-12 12:17:00,
2014-01-12 06:22:00,38.8,36.1,30.15,NW,305,0.0,0.0,90,0.00,,,0.00,meteohub,2014-01-12 12:22:00,
2014-01-12 06:27:00,38.8,36.1,30.15,NW,305,0.0,0.0,90,0.00,,,0.00,meteohub,2014-01-12 12:27:00,
2014-01-12 06:32:00,38.8,36.1,30.15,NW,305,0.0,0.0,90,0.00,,,0.00,meteohub,2014-01-12 12:32:00,
2014-01-12 06:37:00,38.8,36.1,30.15,NW,305,0.0,0.0,90,0.00,,,0.00,meteohub,2014-01-12 12:37:00,
2014-01-12 06:42:00,38.7,35.8,30.15,NW,305,0.0,0.0,89,0.00,,,0.00,meteohub,2014-01-12 12:42:00,
2014-01-12 06:47:00,38.7,35.8,30.15,NW,305,0.0,0.0,89,0.00,,,0.00,meteohub,2014-01-12 12:47:00,
2014-01-12 06:52:00,38.5,35.6,30.16,NW,305,0.0,0.0,89,0.00,,,0.00,meteohub,2014-01-12 12:52:00,
2014-01-12 06:57:00,38.3,35.6,30.16,NW,305,0.0,0.0,90,0.00,,,0.00,meteohub,2014-01-12 12:57:00,
2014-01-12 07:02:00,38.3,35.6,30.16,NW,305,0.0,0.0,90,0.00,,,0.00,meteohub,2014-01-12 13:02:00,
2014-01-12 07:07:00,38.5,35.8,30.16,NW,305,0.0,0.0,90,0.00,,,0.00,meteohub,2014-01-12 13:07:00,
2014-01-12 07:12:00,38.1,35.4,30.16,NW,305,0.0,0.0,90,0.00,,,0.00,meteohub,2014-01-12 13:12:00,
2014-01-12 07:17:00,38.1,35.4,30.17,NW,305,0.0,0.0,90,0.00,,,0.00,meteohub,2014-01-12 13:17:00,
2014-01-12 07:22:00,38.1,35.4,30.17,NW,305,0.0,0.0,90,0.00,,,0.00,meteohub,2014-01-12 13:22:00,
2014-01-12 07:27:00,38.1,35.4,30.17,NW,305,0.0,0.0,90,0.00,,,0.00,meteohub,2014-01-12 13:27:00,
2014-01-12 07:32:00,38.5,35.8,30.17,NW,305,0.0,0.0,90,0.00,,,0.00,meteohub,2014-01-12 13:32:00,
2014-01-12 07:37:00,38.8,36.5,30.17,NW,305,0.0,0.0,91,0.00,,,0.00,meteohub,2014-01-12 13:37:00,
2014-01-12 07:42:00,39.4,37.0,30.18,NW,305,0.0,0.0,91,0.00,,,0.00,meteohub,2014-01-12 13:42:00,
2014-01-12 07:47:00,40.3,37.9,30.18,NW,305,0.0,0.0,91,0.00,,,0.00,meteohub,2014-01-12 13:47:00,
2014-01-12 07:52:00,41.9,39.4,30.18,NW,305,0.0,0.0,91,0.00,,,0.00,meteohub,2014-01-12 13:52:00,
2014-01-12 07:57:00,43.0,40.3,30.18,SW,232,0.0,0.0,90,0.00,,,0.00,meteohub,2014-01-12 13:57:00,
2014-01-12 08:02:00,43.7,40.5,30.18,SW,232,0.0,0.0,88,0.00,,,0.00,meteohub,2014-01-12 14:02:00,
2014-01-12 08:07:00,44.6,41.0,30.18,SW,232,0.0,0.0,87,0.00,,,0.00,meteohub,2014-01-12 14:07:00,
2014-01-12 08:12:00,45.7,41.4,30.19,SW,232,0.0,0.0,85,0.00,,,0.00,meteohub,2014-01-12 14:12:00,
2014-01-12 08:17:00,46.6,42.1,30.19,SW,232,0.0,0.0,84,0.00,,,0.00,meteohub,2014-01-12 14:17:00,
2014-01-12 08:22:00,47.3,42.1,30.19,SW,232,0.0,0.0,82,0.00,,,0.00,meteohub,2014-01-12 14:22:00,
2014-01-12 08:27:00,48.0,42.4,30.19,SW,232,0.0,0.0,81,0.00,,,0.00,meteohub,2014-01-12 14:27:00,
2014-01-12 08:32:00,48.9,42.4,30.19,SW,232,0.0,1.0,78,0.00,,,0.00,meteohub,2014-01-12 14:32:00,
2014-01-12 08:37:00,49.8,42.3,30.19,SW,232,0.0,1.0,75,0.00,,,0.00,meteohub,2014-01-12 14:37:00,
2014-01-12 08:42:00,50.5,41.9,30.20,SW,232,0.0,1.0,72,0.00,,,0.00,meteohub,2014-01-12 14:42:00,
2014-01-12 08:47:00,51.3,42.3,30.20,SW,232,0.0,1.0,71,0.00,,,0.00,meteohub,2014-01-12 14:47:00,
2014-01-12 08:52:00,52.2,43.3,30.20,SW,232,0.0,1.0,72,0.00,,,0.00,meteohub,2014-01-12 14:52:00,
2014-01-12 08:57:00,53.2,44.1,30.19,SW,232,0.0,1.0,71,0.00,,,0.00,meteohub,2014-01-12 14:57:00,
2014-01-12 09:02:00,54.1,44.6,30.20,SW,232,0.0,2.0,70,0.00,,,0.00,meteohub,2014-01-12 15:02:00,
2014-01-12 09:07:00,54.5,44.2,30.20,SW,232,0.0,2.0,68,0.00,,,0.00,meteohub,2014-01-12 15:07:00,
2014-01-12 09:12:00,55.0,43.9,30.20,SW,222,1.0,3.0,66,0.00,,,0.00,meteohub,2014-01-12 15:12:00,
2014-01-12 09:17:00,55.2,43.7,30.20,SW,215,2.0,3.0,65,0.00,,,0.00,meteohub,2014-01-12 15:17:00,
2014-01-12 09:22:00,55.9,43.5,30.20,South,179,1.0,4.0,63,0.00,,,0.00,meteohub,2014-01-12 15:22:00,
2014-01-12 09:27:00,56.5,43.7,30.20,South,180,3.0,4.0,62,0.00,,,0.00,meteohub,2014-01-12 15:27:00,
2014-01-12 09:32:00,57.4,44.1,30.21,South,182,0.0,4.0,61,0.00,,,0.00,meteohub,2014-01-12 15:32:00,
2014-01-12 09:37:00,58.5,42.4,30.20,South,179,4.0,4.0,55,0.00,,,0.00,meteohub,2014-01-12 15:37:00,
2014-01-12 09:42:00,59.5,40.3,30.20,South,186,4.0,6.0,49,0.00,,,0.00,meteohub,2014-01-12 15:42:00,
2014-01-12 09:47:00,60.1,40.3,30.20,South,180,3.0,7.0,48,0.00,,,0.00,meteohub,2014-01-12 15:47:00,
2014-01-12 09:52:00,60.4,40.1,30.20,SSW,195,6.0,7.0,47,0.00,,,0.00,meteohub,2014-01-12 15:52:00,
2014-01-12 09:57:00,61.0,40.6,30.20,South,190,3.0,8.0,47,0.00,,,0.00,meteohub,2014-01-12 15:57:00,
2014-01-12 10:02:00,61.3,41.5,30.20,SSW,200,3.0,8.0,48,0.00,,,0.00,meteohub,2014-01-12 16:02:00,
2014-01-12 10:07:00,62.1,41.0,30.20,SE,146,7.0,8.0,46,0.00,,,0.00,meteohub,2014-01-12 16:07:00,
2014-01-12 10:12:00,62.4,40.3,30.20,South,169,3.0,7.0,44,0.00,,,0.00,meteohub,2014-01-12 16:12:00,
2014-01-12 10:18:00,63.1,39.7,30.20,South,184,6.0,7.0,42,0.00,,,0.00,meteohub,2014-01-12 16:18:00,
2014-01-12 10:23:00,63.5,39.9,30.20,SSE,167,3.0,7.0,42,0.00,,,0.00,meteohub,2014-01-12 16:23:00,
2014-01-12 10:28:00,63.7,38.8,30.20,South,181,3.0,7.0,40,0.00,,,0.00,meteohub,2014-01-12 16:28:00,
2014-01-12 10:33:00,63.7,38.8,30.20,SSE,159,8.0,10.0,40,0.00,,,0.00,meteohub,2014-01-12 16:33:00,
2014-01-12 10:38:00,63.5,38.7,30.20,South,187,5.0,10.0,40,0.00,,,0.00,meteohub,2014-01-12 16:38:00,
2014-01-12 10:43:00,63.7,37.6,30.19,South,188,3.0,10.0,38,0.00,,,0.00,meteohub,2014-01-12 16:43:00,
2014-01-12 10:48:00,63.5,38.7,30.19,South,169,7.0,10.0,40,0.00,,,0.00,meteohub,2014-01-12 16:48:00,
2014-01-12 10:53:00,63.5,38.1,30.19,SSE,164,4.0,11.0,39,0.00,,,0.00,meteohub,2014-01-12 16:53:00,
2014-01-12 10:58:00,63.9,38.5,30.18,SSE,150,7.0,11.0,39,0.00,,,0.00,meteohub,2014-01-12 16:58:00,
2014-01-12 11:03:00,64.2,38.1,30.18,SE,136,9.0,11.0,38,0.00,,,0.00,meteohub,2014-01-12 17:03:00,
2014-01-12 11:08:00,64.6,37.0,30.18,SE,141,7.0,11.0,36,0.00,,,0.00,meteohub,2014-01-12 17:08:00,
2014-01-12 11:13:00,64.6,37.0,30.17,SSE,167,4.0,11.0,36,0.00,,,0.00,meteohub,2014-01-12 17:13:00,
2014-01-12 11:18:00,65.1,37.6,30.17,SSE,168,5.0,11.0,36,0.00,,,0.00,meteohub,2014-01-12 17:18:00,
2014-01-12 11:23:00,65.5,37.0,30.17,SSW,193,7.0,10.0,35,0.00,,,0.00,meteohub,2014-01-12 17:23:00,
2014-01-12 11:28:00,65.7,37.2,30.17,SSW,211,4.0,10.0,35,0.00,,,0.00,meteohub,2014-01-12 17:28:00,
2014-01-12 11:33:00,65.7,36.5,30.16,SSW,201,5.0,11.0,34,0.00,,,0.00,meteohub,2014-01-12 17:33:00,
2014-01-12 11:38:00,66.0,36.1,30.16,SSW,198,6.0,12.0,33,0.00,,,0.00,meteohub,2014-01-12 17:38:00,
2014-01-12 11:43:00,66.2,37.8,30.15,South,184,4.0,12.0,35,0.00,,,0.00,meteohub,2014-01-12 17:43:00,
2014-01-12 11:48:00,66.0,37.6,30.15,SSW,194,4.0,11.0,35,0.00,,,0.00,meteohub,2014-01-12 17:48:00,
2014-01-12 11:53:00,66.4,36.3,30.14,South,188,6.0,11.0,33,0.00,,,0.00,meteohub,2014-01-12 17:53:00,
2014-01-12 11:58:00,66.9,36.9,30.14,SSW,210,7.0,10.0,33,0.00,,,0.00,meteohub,2014-01-12 17:58:00,
2014-01-12 12:03:00,66.7,36.7,30.14,SW,215,8.0,11.0,33,0.00,,,0.00,meteohub,2014-01-12 18:03:00,
2014-01-12 12:09:00,66.7,38.3,30.13,SW,221,7.0,11.0,35,0.00,,,0.00,meteohub,2014-01-12 18:09:00,
2014-01-12 12:14:00,67.3,37.9,30.13,South,190,2.0,11.0,34,0.00,,,0.00,meteohub,2014-01-12 18:14:00,
2014-01-12 12:19:00,67.6,37.6,30.13,South,186,7.0,10.0,33,0.00,,,0.00,meteohub,2014-01-12 18:19:00,
2014-01-12 12:24:00,67.1,37.0,30.13,SSW,210,2.0,9.0,33,0.00,,,0.00,meteohub,2014-01-12 18:24:00,
2014-01-12 12:29:00,67.3,37.9,30.12,South,188,5.0,13.0,34,0.00,,,0.00,meteohub,2014-01-12 18:29:00,
2014-01-12 12:34:00,67.5,37.4,30.12,South,171,6.0,13.0,33,0.00,,,0.00,meteohub,2014-01-12 18:34:00,
2014-01-12 12:39:00,67.6,37.6,30.12,SSE,168,3.0,12.0,33,0.00,,,0.00,meteohub,2014-01-12 18:39:00,
2014-01-12 12:44:00,67.5,37.4,30.11,South,181,5.0,11.0,33,0.00,,,0.00,meteohub,2014-01-12 18:44:00,
2014-01-12 12:49:00,67.5,36.5,30.11,SSE,152,5.0,10.0,32,0.00,,,0.00,meteohub,2014-01-12 18:49:00,
2014-01-12 12:54:00,67.8,37.6,30.11,SW,230,5.0,13.0,33,0.00,,,0.00,meteohub,2014-01-12 18:54:00,
2014-01-12 12:59:00,68.2,37.9,30.11,South,190,8.0,13.0,33,0.00,,,0.00,meteohub,2014-01-12 18:59:00,
2014-01-12 13:04:00,68.0,37.8,30.11,SSW,192,6.0,13.0,33,0.00,,,0.00,meteohub,2014-01-12 19:04:00,
2014-01-12 13:09:00,67.8,36.9,30.11,SSW,193,7.0,13.0,32,0.00,,,0.00,meteohub,2014-01-12 19:09:00,
2014-01-12 13:14:00,67.8,37.6,30.10,South,190,6.0,13.0,33,0.00,,,0.00,meteohub,2014-01-12 19:14:00,
2014-01-12 13:19:00,68.2,37.9,30.10,South,185,7.0,12.0,33,0.00,,,0.00,meteohub,2014-01-12 19:19:00,
2014-01-12 13:24:00,68.4,38.1,30.10,South,184,7.0,11.0,33,0.00,,,0.00,meteohub,2014-01-12 19:24:00,
2014-01-12 13:29:00,68.4,38.1,30.10,SSE,156,5.0,11.0,33,0.00,,,0.00,meteohub,2014-01-12 19:29:00,
2014-01-12 13:34:00,68.4,37.4,30.10,SSE,164,3.0,13.0,32,0.00,,,0.00,meteohub,2014-01-12 19:34:00,
2014-01-12 13:39:00,68.5,37.6,30.10,SSE,164,6.0,13.0,32,0.00,,,0.00,meteohub,2014-01-12 19:39:00,
2014-01-12 13:44:00,68.4,37.4,30.10,SSE,160,5.0,12.0,32,0.00,,,0.00,meteohub,2014-01-12 19:44:00,
2014-01-12 13:49:00,68.2,37.9,30.09,South,190,3.0,12.0,33,0.00,,,0.00,meteohub,2014-01-12 19:49:00,
2014-01-12 13:54:00,68.4,37.4,30.09,SSW,200,2.0,16.0,32,0.00,,,0.00,meteohub,2014-01-12 19:54:00,
2014-01-12 13:59:00,68.7,39.2,30.09,SSE,163,7.0,16.0,34,0.00,,,0.00,meteohub,2014-01-12 19:59:00,
2014-01-12 14:04:00,68.7,37.6,30.09,South,186,7.0,14.0,32,0.00,,,0.00,meteohub,2014-01-12 20:04:00,
2014-01-12 14:09:00,68.9,37.8,30.09,SSE,162,7.0,11.0,32,0.00,,,0.00,meteohub,2014-01-12 20:09:00,
2014-01-12 14:14:00,69.1,37.2,30.09,South,178,5.0,11.0,31,0.00,,,0.00,meteohub,2014-01-12 20:14:00,
2014-01-12 14:19:00,69.3,38.1,30.09,SSW,194,7.0,13.0,32,0.00,,,0.00,meteohub,2014-01-12 20:19:00,
2014-01-12 14:24:00,69.4,35.8,30.09,SSW,213,7.0,13.0,29,0.00,,,0.00,meteohub,2014-01-12 20:24:00,
2014-01-12 14:29:00,69.4,36.7,30.09,South,182,8.0,13.0,30,0.00,,,0.00,meteohub,2014-01-12 20:29:00,
2014-01-12 14:34:00,69.4,35.8,30.09,South,184,5.0,13.0,29,0.00,,,0.00,meteohub,2014-01-12 20:34:00,
2014-01-12 14:39:00,69.6,36.9,30.09,South,189,6.0,12.0,30,0.00,,,0.00,meteohub,2014-01-12 20:39:00,
2014-01-12 14:44:00,69.4,34.9,30.09,SSW,208,5.0,12.0,28,0.00,,,0.00,meteohub,2014-01-12 20:44:00,
2014-01-12 14:49:00,69.6,35.1,30.09,South,190,3.0,12.0,28,0.00,,,0.00,meteohub,2014-01-12 20:49:00,
2014-01-12 14:54:00,70.0,35.4,30.09,SSW,192,3.0,11.0,28,0.00,,,0.00,meteohub,2014-01-12 20:54:00,
2014-01-12 15:00:00,70.0,36.3,30.09,SSW,202,5.0,11.0,29,0.00,,,0.00,meteohub,2014-01-12 21:00:00,
2014-01-12 15:05:00,69.6,36.0,30.08,South,186,2.0,10.0,29,0.00,,,0.00,meteohub,2014-01-12 21:05:00,
2014-01-12 15:10:00,69.6,36.9,30.08,South,191,5.0,10.0,30,0.00,,,0.00,meteohub,2014-01-12 21:10:00,
2014-01-12 15:15:00,69.4,38.3,30.08,SSW,198,4.0,10.0,32,0.00,,,0.00,meteohub,2014-01-12 21:15:00,
2014-01-12 15:20:00,69.4,37.4,30.08,SE,144,7.0,10.0,31,0.00,,,0.00,meteohub,2014-01-12 21:20:00,
2014-01-12 15:25:00,69.3,37.4,30.08,SSW,202,7.0,10.0,31,0.00,,,0.00,meteohub,2014-01-12 21:25:00,
2014-01-12 15:30:00,69.3,36.5,30.08,SSE,165,7.0,11.0,30,0.00,,,0.00,meteohub,2014-01-12 21:30:00,
2014-01-12 15:35:00,69.1,37.9,30.07,SSW,193,3.0,11.0,32,0.00,,,0.00,meteohub,2014-01-12 21:35:00,
2014-01-12 15:40:00,68.9,36.1,30.07,South,180,5.0,13.0,30,0.00,,,0.00,meteohub,2014-01-12 21:40:00,
2014-01-12 15:45:00,68.7,36.9,30.07,South,184,4.0,11.0,31,0.00,,,0.00,meteohub,2014-01-12 21:45:00,
2014-01-12 15:50:00,68.7,36.0,30.07,South,189,5.0,11.0,30,0.00,,,0.00,meteohub,2014-01-12 21:50:00,
2014-01-12 15:55:00,68.4,34.9,30.07,South,185,4.0,11.0,29,0.00,,,0.00,meteohub,2014-01-12 21:55:00,
2014-01-12 16:00:00,68.0,35.4,30.07,South,176,3.0,11.0,30,0.00,,,0.00,meteohub,2014-01-12 22:00:00,
2014-01-12 16:05:00,68.0,35.4,30.07,SSE,165,5.0,11.0,30,0.00,,,0.00,meteohub,2014-01-12 22:05:00,
2014-01-12 16:10:00,67.8,36.1,30.07,South,188,6.0,9.0,31,0.00,,,0.00,meteohub,2014-01-12 22:10:00,
2014-01-12 16:15:00,67.6,36.0,30.07,SSW,205,6.0,10.0,31,0.00,,,0.00,meteohub,2014-01-12 22:15:00,
2014-01-12 16:21:00,67.5,35.8,30.08,SSW,199,6.0,11.0,31,0.00,,,0.00,meteohub,2014-01-12 22:21:00,
2014-01-12 16:26:00,67.3,36.5,30.08,South,188,4.0,11.0,32,0.00,,,0.00,meteohub,2014-01-12 22:26:00,
2014-01-12 16:31:00,66.9,36.9,30.08,South,175,5.0,11.0,33,0.00,,,0.00,meteohub,2014-01-12 22:31:00,
2014-01-12 16:36:00,66.7,36.7,30.08,South,179,2.0,11.0,33,0.00,,,0.00,meteohub,2014-01-12 22:36:00,
2014-01-12 16:41:00,66.4,37.2,30.08,South,182,4.0,11.0,34,0.00,,,0.00,meteohub,2014-01-12 22:41:00,
2014-01-12 16:46:00,66.0,37.6,30.08,SSW,202,3.0,9.0,35,0.00,,,0.00,meteohub,2014-01-12 22:46:00,
2014-01-12 16:51:00,65.7,37.2,30.09,SSW,194,7.0,9.0,35,0.00,,,0.00,meteohub,2014-01-12 22:51:00,
2014-01-12 16:56:00,65.5,37.8,30.09,South,188,5.0,8.0,36,0.00,,,0.00,meteohub,2014-01-12 22:56:00,
2014-01-12 17:01:00,64.9,38.1,30.09,South,185,1.0,7.0,37,0.00,,,0.00,meteohub,2014-01-12 23:01:00,
2014-01-12 17:06:00,64.6,38.5,30.09,SSW,204,2.0,7.0,38,0.00,,,0.00,meteohub,2014-01-12 23:06:00,
2014-01-12 17:11:00,64.0,38.7,30.09,SW,222,3.0,7.0,39,0.00,,,0.00,meteohub,2014-01-12 23:11:00,
2014-01-12 17:16:00,63.5,38.1,30.09,SW,221,0.0,5.0,39,0.00,,,0.00,meteohub,2014-01-12 23:16:00,
2014-01-12 17:21:00,62.8,38.7,30.09,SSW,209,6.0,6.0,41,0.00,,,0.00,meteohub,2014-01-12 23:21:00,
2014-01-12 17:26:00,62.4,38.5,30.09,SW,215,2.0,7.0,41,0.00,,,0.00,meteohub,2014-01-12 23:26:00,
2014-01-12 17:31:00,62.2,38.3,30.09,SSW,200,2.0,7.0,41,0.00,,,0.00,meteohub,2014-01-12 23:31:00,
2014-01-12 17:36:00,62.1,39.4,30.09,SSW,213,1.0,7.0,43,0.00,,,0.00,meteohub,2014-01-12 23:36:00,
2014-01-12 17:41:00,61.5,39.4,30.09,SSW,213,2.0,7.0,44,0.00,,,0.00,meteohub,2014-01-12 23:41:00,
2014-01-12 17:46:00,61.2,39.7,30.09,SSW,213,2.0,5.0,45,0.00,,,0.00,meteohub,2014-01-12 23:46:00,
2014-01-12 17:51:00,60.6,39.7,30.09,SSW,213,2.0,4.0,46,0.00,,,0.00,meteohub,2014-01-12 23:51:00,
2014-01-12 17:56:00,60.3,39.4,30.09,SSW,213,2.0,4.0,46,0.00,,,0.00,meteohub,2014-01-12 23:56:00,
2014-01-12 18:02:00,60.4,39.6,30.10,SSW,211,1.0,6.0,46,0.00,,,0.00,meteohub,2014-01-13 00:02:00,
2014-01-12 18:07:00,60.1,39.7,30.10,SSW,211,1.0,6.0,47,0.00,,,0.00,meteohub,2014-01-13 00:07:00,
2014-01-12 18:12:00,59.5,39.9,30.10,SSW,204,2.0,6.0,48,0.00,,,0.00,meteohub,2014-01-13 00:12:00,
2014-01-12 18:17:00,59.4,40.3,30.10,SSW,204,2.0,6.0,49,0.00,,,0.00,meteohub,2014-01-13 00:17:00,
2014-01-12 18:22:00,58.8,40.3,30.10,SSW,204,3.0,4.0,50,0.00,,,0.00,meteohub,2014-01-13 00:22:00,
2014-01-12 18:27:00,58.5,40.5,30.10,SSW,204,1.0,4.0,51,0.00,,,0.00,meteohub,2014-01-13 00:27:00,
2014-01-12 18:32:00,57.9,40.5,30.10,SSW,204,1.0,3.0,52,0.00,,,0.00,meteohub,2014-01-13 00:32:00,
2014-01-12 18:37:00,57.7,40.3,30.11,SSW,204,2.0,3.0,52,0.00,,,0.00,meteohub,2014-01-13 00:37:00,
2014-01-12 18:42:00,57.6,40.1,30.11,SW,227,3.0,3.0,52,0.00,,,0.00,meteohub,2014-01-13 00:42:00,
2014-01-12 18:47:00,57.7,39.2,30.11,SSW,205,2.0,6.0,50,0.00,,,0.00,meteohub,2014-01-13 00:47:00,
2014-01-12 18:51:00,57.9,39.4,30.11,SSW,208,2.0,6.0,50,0.00,,,0.00,meteohub,2014-01-13 00:51:00,
2014-01-12 18:57:00,58.3,39.7,30.11,SSW,208,2.0,6.0,50,0.00,,,0.00,meteohub,2014-01-13 00:57:00,
2014-01-12 19:02:00,58.3,39.2,30.11,SSW,209,1.0,6.0,49,0.00,,,0.00,meteohub,2014-01-13 01:02:00,
2014-01-12 19:07:00,58.3,39.7,30.11,SW,229,3.0,6.0,50,0.00,,,0.00,meteohub,2014-01-13 01:07:00,
2014-01-12 19:12:00,58.1,39.6,30.11,SSW,198,1.0,6.0,50,0.00,,,0.00,meteohub,2014-01-13 01:12:00,
2014-01-12 19:17:00,57.7,39.7,30.11,SSW,198,0.0,6.0,51,0.00,,,0.00,meteohub,2014-01-13 01:17:00,
2014-01-12 19:22:00,57.2,39.7,30.12,SSW,198,1.0,6.0,52,0.00,,,0.00,meteohub,2014-01-13 01:22:00,
2014-01-12 19:27:00,56.7,39.7,30.11,SSW,198,0.0,2.0,53,0.00,,,0.00,meteohub,2014-01-13 01:27:00,
2014-01-12 19:32:00,56.5,39.6,30.11,SSW,198,0.0,2.0,53,0.00,,,0.00,meteohub,2014-01-13 01:32:00,
2014-01-12 19:37:00,56.1,39.7,30.12,SSW,198,2.0,2.0,54,0.00,,,0.00,meteohub,2014-01-13 01:37:00,
2014-01-12 19:42:00,56.1,39.2,30.11,SSW,198,0.0,3.0,53,0.00,,,0.00,meteohub,2014-01-13 01:42:00,
2014-01-12 19:47:00,56.1,39.7,30.11,SSW,198,0.0,3.0,54,0.00,,,0.00,meteohub,2014-01-13 01:47:00,
2014-01-12 19:52:00,55.9,39.6,30.11,SSW,198,1.0,3.0,54,0.00,,,0.00,meteohub,2014-01-13 01:52:00,
2014-01-12 19:57:00,56.1,39.2,30.11,SSW,198,3.0,3.0,53,0.00,,,0.00,meteohub,2014-01-13 01:57:00,
2014-01-12 20:02:00,56.3,39.4,30.11,South,186,1.0,3.0,53,0.00,,,0.00,meteohub,2014-01-13 02:02:00,
2014-01-12 20:06:00,56.5,39.6,30.11,South,186,2.0,4.0,53,0.00,,,0.00,meteohub,2014-01-13 02:06:00,
2014-01-12 20:12:00,56.3,39.4,30.11,South,186,1.0,4.0,53,0.00,,,0.00,meteohub,2014-01-13 02:12:00,
2014-01-12 20:17:00,56.1,38.7,30.11,South,186,2.0,4.0,52,0.00,,,0.00,meteohub,2014-01-13 02:17:00,
2014-01-12 20:22:00,56.1,38.7,30.11,South,186,1.0,4.0,52,0.00,,,0.00,meteohub,2014-01-13 02:22:00,
2014-01-12 20:27:00,56.1,38.7,30.11,South,186,0.0,3.0,52,0.00,,,0.00,meteohub,2014-01-13 02:27:00,
2014-01-12 20:32:00,56.1,38.7,30.11,South,186,1.0,4.0,52,0.00,,,0.00,meteohub,2014-01-13 02:32:00,
2014-01-12 20:37:00,55.9,38.5,30.11,South,186,0.0,4.0,52,0.00,,,0.00,meteohub,2014-01-13 02:37:00,
2014-01-12 20:42:00,55.9,38.5,30.11,South,186,0.0,2.0,52,0.00,,,0.00,meteohub,2014-01-13 02:42:00,
2014-01-12 20:47:00,55.8,38.8,30.11,South,186,0.0,3.0,53,0.00,,,0.00,meteohub,2014-01-13 02:47:00,
2014-01-12 20:52:00,55.8,38.8,30.11,South,186,1.0,3.0,53,0.00,,,0.00,meteohub,2014-01-13 02:52:00,
2014-01-12 20:57:00,55.8,38.8,30.12,South,186,0.0,3.0,53,0.00,,,0.00,meteohub,2014-01-13 02:57:00,
2014-01-12 21:02:00,55.8,38.5,30.11,South,186,1.0,3.0,52,0.00,,,0.00,meteohub,2014-01-13 03:02:00,
2014-01-12 21:07:00,55.8,38.5,30.11,South,186,0.0,3.0,52,0.00,,,0.00,meteohub,2014-01-13 03:07:00,
2014-01-12 21:12:00,55.8,37.9,30.12,South,186,0.0,3.0,51,0.00,,,0.00,meteohub,2014-01-13 03:12:00,
2014-01-12 21:17:00,55.8,38.5,30.12,South,186,2.0,3.0,52,0.00,,,0.00,meteohub,2014-01-13 03:17:00,
2014-01-12 21:22:00,55.6,38.3,30.11,South,186,2.0,5.0,52,0.00,,,0.00,meteohub,2014-01-13 03:22:00,
2014-01-12 21:27:00,55.6,38.3,30.11,South,186,2.0,5.0,52,0.00,,,0.00,meteohub,2014-01-13 03:27:00,
2014-01-12 21:32:00,55.6,38.3,30.10,South,169,3.0,5.0,52,0.00,,,0.00,meteohub,2014-01-13 03:32:00,
2014-01-12 21:37:00,55.6,37.8,30.09,SE,144,4.0,5.0,51,0.00,,,0.00,meteohub,2014-01-13 03:37:00,
2014-01-12 21:42:00,55.9,37.0,30.09,SSE,152,2.0,7.0,49,0.00,,,0.00,meteohub,2014-01-13 03:42:00,
2014-01-12 21:47:00,55.9,36.5,30.08,SE,142,5.0,7.0,48,0.00,,,0.00,meteohub,2014-01-13 03:47:00,
2014-01-12 21:52:00,56.3,37.4,30.06,SSE,165,5.0,10.0,49,0.00,,,0.00,meteohub,2014-01-13 03:52:00,
2014-01-12 21:57:00,56.5,37.6,30.05,SSE,163,5.0,14.0,49,0.00,,,0.00,meteohub,2014-01-13 03:57:00,
2014-01-12 22:02:00,56.8,37.4,30.05,SSE,159,6.0,14.0,48,0.00,,,0.00,meteohub,2014-01-13 04:02:00,
2014-01-12 22:07:00,57.0,37.6,30.06,SSE,157,8.0,14.0,48,0.00,,,0.00,meteohub,2014-01-13 04:07:00,
2014-01-12 22:12:00,57.0,38.1,30.06,South,176,5.0,14.0,49,0.00,,,0.00,meteohub,2014-01-13 04:12:00,
2014-01-12 22:17:00,56.8,38.5,30.06,South,172,3.0,14.0,50,0.00,,,0.00,meteohub,2014-01-13 04:17:00,
2014-01-12 22:22:00,56.8,38.5,30.05,South,170,5.0,10.0,50,0.00,,,0.00,meteohub,2014-01-13 04:22:00,
2014-01-12 22:27:00,56.8,38.8,30.06,SSW,202,5.0,8.0,51,0.00,,,0.00,meteohub,2014-01-13 04:27:00,
2014-01-12 22:32:00,56.8,38.8,30.06,SSW,206,3.0,8.0,51,0.00,,,0.00,meteohub,2014-01-13 04:32:00,
2014-01-12 22:37:00,56.8,39.4,30.07,SSW,209,2.0,8.0,52,0.00,,,0.00,meteohub,2014-01-13 04:37:00,
2014-01-12 22:42:00,56.7,39.7,30.05,SE,136,4.0,6.0,53,0.00,,,0.00,meteohub,2014-01-13 04:42:00,
2014-01-12 22:47:00,56.7,39.7,30.05,South,178,2.0,6.0,53,0.00,,,0.00,meteohub,2014-01-13 04:47:00,
2014-01-12 22:52:00,56.5,40.1,30.05,South,182,1.0,6.0,54,0.00,,,0.00,meteohub,2014-01-13 04:52:00,
2014-01-12 22:57:00,56.5,41.0,30.06,SW,215,6.0,6.0,56,0.00,,,0.00,meteohub,2014-01-13 04:57:00,
2014-01-12 23:01:00,56.3,41.2,30.07,SSW,208,3.0,6.0,57,0.00,,,0.00,meteohub,2014-01-13 05:01:00,
2014-01-12 23:06:00,56.1,41.5,30.07,SSW,207,1.0,6.0,58,0.00,,,0.00,meteohub,2014-01-13 05:06:00,
2014-01-12 23:11:00,56.1,41.9,30.07,SSW,207,2.0,6.0,59,0.00,,,0.00,meteohub,2014-01-13 05:11:00,
2014-01-12 23:16:00,56.1,41.9,30.07,SW,216,2.0,6.0,59,0.00,,,0.00,meteohub,2014-01-13 05:16:00,
2014-01-12 23:21:00,56.3,42.6,30.07,SW,215,1.0,5.0,60,0.00,,,0.00,meteohub,2014-01-13 05:21:00,
2014-01-12 23:26:00,56.3,42.6,30.07,SW,215,1.0,5.0,60,0.00,,,0.00,meteohub,2014-01-13 05:26:00,
2014-01-12 23:31:00,56.1,42.4,30.06,South,185,4.0,4.0,60,0.00,,,0.00,meteohub,2014-01-13 05:31:00,
2014-01-12 23:36:00,56.3,43.5,30.06,South,185,2.0,5.0,62,0.00,,,0.00,meteohub,2014-01-13 05:36:00,
2014-01-12 23:41:00,56.1,43.7,30.05,South,184,0.0,7.0,63,0.00,,,0.00,meteohub,2014-01-13 05:41:00,
2014-01-12 23:46:00,55.9,43.9,30.05,SSW,195,0.0,7.0,64,0.00,,,0.00,meteohub,2014-01-13 05:46:00,
2014-01-12 23:51:00,55.9,44.4,30.05,South,190,1.0,6.0,65,0.00,,,0.00,meteohub,2014-01-13 05:51:00,
2014-01-12 23:56:00,55.8,44.6,30.04,South,177,1.0,6.0,66,0.00,,,0.00,meteohub,2014-01-13 05:56:00,